When you browse on this site, cookies collect data to enhance your experience and personalize the content and advertising you see.
Visit our Privacy Policy to learn more. By continuing to use the site, you agree to this use of cookies and data.
  • în România
  • Lista ţărilor
  • Pe 7 zile
  • Temperatura apei
  • Meteo pe hartă
  • Widget-uri
  • user-avatar
    Intrare

    Meteo pe oră la Bandar Seri Begawan

    Astăzi, 13 Decembrie, Vineri

    Timp Temperatura Precipitaţii Vânt Presiune Umiditate
    00:00 +26°C° 6.3 mm 1 m/s 756 mmHg 97%
    01:00 +26°C° 6.3 mm 1 m/s 756 mmHg 97%
    02:00 +25°C° 0 mm 1 m/s 755 mmHg 98%
    03:00 +25°C° 4.3 mm 1 m/s 755 mmHg 98%
    04:00 +25°C° 4.3 mm 1 m/s 755 mmHg 98%
    05:00 +25°C° 4.3 mm 1 m/s 755 mmHg 98%
    06:00 +25°C° 3.2 mm 1 m/s 755 mmHg 97%
    07:00 +25°C° 3.2 mm 1 m/s 756 mmHg 96%
    08:00 +26°C° 0 mm 2 m/s 756 mmHg 95%
    09:00 +27°C° 0.3 mm 1 m/s 756 mmHg 89%
    10:00 +29°C° 0.3 mm 1 m/s 756 mmHg 82%
    11:00 +28°C° 0.3 mm 0 m/s 756 mmHg 76%
    12:00 +31°C° 0.1 mm 1 m/s 756 mmHg 73%
    13:00 +31°C° 0.1 mm 1 m/s 755 mmHg 71%
    14:00 +31°C° 0 mm 2 m/s 755 mmHg 68%
    15:00 +31°C° 0.4 mm 2 m/s 754 mmHg 74%
    16:00 +30°C° 0.4 mm 2 m/s 754 mmHg 80%
    17:00 +29°C° 0.4 mm 2 m/s 753 mmHg 86%
    18:00 +28°C° 0 mm 2 m/s 754 mmHg 87%
    19:00 +28°C° 0 mm 2 m/s 755 mmHg 89%
    20:00 +27°C° 0 mm 2 m/s 756 mmHg 90%
    21:00 +27°C° 0 mm 1 m/s 756 mmHg 90%
    22:00 +27°C° 0 mm 1 m/s 756 mmHg 91%
    23:00 +27°C° 0 mm 1 m/s 756 mmHg 91%

    Mâine, 14 Decembrie, Sâmbătă

    Timp Temperatura Precipitaţii Vânt Presiune Umiditate
    00:00 +27°C° 0 mm 1 m/s 756 mmHg 92%
    01:00 +26°C° 0 mm 1 m/s 756 mmHg 92%
    02:00 +26°C° 0 mm 1 m/s 756 mmHg 93%
    03:00 +26°C° 0 mm 1 m/s 755 mmHg 94%
    04:00 +26°C° 0 mm 1 m/s 755 mmHg 95%
    05:00 +26°C° 0 mm 1 m/s 755 mmHg 96%
    06:00 +26°C° 0 mm 1 m/s 755 mmHg 93%
    07:00 +27°C° 0 mm 1 m/s 756 mmHg 91%
    08:00 +27°C° 0 mm 1 m/s 756 mmHg 88%
    09:00 +29°C° 0 mm 1 m/s 756 mmHg 80%
    10:00 +31°C° 0 mm 1 m/s 756 mmHg 72%
    11:00 +33°C° 0 mm 1 m/s 756 mmHg 65%
    12:00 +32°C° 0.1 mm 2 m/s 755 mmHg 68%
    13:00 +33°C° 0.1 mm 3 m/s 754 mmHg 72%
    14:00 +32°C° 0.1 mm 4 m/s 754 mmHg 75%
    15:00 +30°C° 1.3 mm 4 m/s 753 mmHg 80%
    16:00 +29°C° 1.3 mm 4 m/s 753 mmHg 85%
    17:00 +29°C° 1.3 mm 4 m/s 753 mmHg 89%
    18:00 +28°C° 0.3 mm 3 m/s 754 mmHg 90%
    19:00 +28°C° 0.3 mm 3 m/s 754 mmHg 91%
    20:00 +28°C° 0.3 mm 2 m/s 755 mmHg 92%
    21:00 +28°C° 0.9 mm 2 m/s 755 mmHg 92%
    22:00 +28°C° 0.9 mm 2 m/s 755 mmHg 93%
    23:00 +28°C° 0.9 mm 2 m/s 755 mmHg 93%

    Poimâine, 15 Decembrie, Duminică

    Timp Temperatura Precipitaţii Vânt Presiune Umiditate
    00:00 +27°C° 0.4 mm 2 m/s 755 mmHg 93%
    01:00 +27°C° 0.4 mm 2 m/s 755 mmHg 93%
    02:00 +27°C° 0.4 mm 2 m/s 754 mmHg 94%
    03:00 +26°C° 0 mm 1 m/s 754 mmHg 94%
    04:00 +26°C° 0 mm 1 m/s 754 mmHg 94%
    05:00 +26°C° 0 mm 1 m/s 754 mmHg 94%
    06:00 +27°C° 0 mm 1 m/s 754 mmHg 92%
    07:00 +27°C° 0 mm 1 m/s 755 mmHg 91%
    08:00 +28°C° 0 mm 1 m/s 755 mmHg 89%
    09:00 +30°C° 0 mm 1 m/s 755 mmHg 80%
    10:00 +31°C° 0 mm 1 m/s 755 mmHg 71%
    11:00 +33°C° 0 mm 1 m/s 755 mmHg 62%
    12:00 +34°C° 0.1 mm 2 m/s 754 mmHg 65%
    13:00 +32°C° 0.1 mm 2 m/s 753 mmHg 67%
    14:00 +33°C° 0.1 mm 3 m/s 753 mmHg 70%
    15:00 +31°C° 0.5 mm 3 m/s 752 mmHg 75%
    16:00 +30°C° 0.5 mm 3 m/s 752 mmHg 80%
    17:00 +29°C° 0.5 mm 3 m/s 752 mmHg 85%
    18:00 +29°C° 0.1 mm 3 m/s 753 mmHg 87%
    19:00 +28°C° 0.1 mm 3 m/s 753 mmHg 89%
    20:00 +28°C° 0.1 mm 3 m/s 754 mmHg 91%
    21:00 +28°C° 0 mm 2 m/s 754 mmHg 91%
    22:00 +27°C° 0 mm 2 m/s 754 mmHg 92%
    23:00 +27°C° 0 mm 2 m/s 754 mmHg 92%

    16 Decembrie, Luni

    Timp Temperatura Precipitaţii Vânt Presiune Umiditate
    00:00 +27°C° 0 mm 2 m/s 754 mmHg 92%
    01:00 +27°C° 0 mm 1 m/s 754 mmHg 92%
    02:00 +27°C° 0 mm 1 m/s 754 mmHg 93%
    03:00 +26°C° 0 mm 1 m/s 753 mmHg 93%
    04:00 +26°C° 0 mm 1 m/s 753 mmHg 94%
    05:00 +26°C° 0 mm 1 m/s 753 mmHg 94%
    06:00 +26°C° 0 mm 1 m/s 753 mmHg 92%
    07:00 +27°C° 0 mm 1 m/s 754 mmHg 89%
    08:00 +26°C° 0 mm 0 m/s 754 mmHg 87%
    09:00 +28°C° 0 mm 0 m/s 754 mmHg 78%
    10:00 +31°C° 0 mm 1 m/s 754 mmHg 70%
    11:00 +33°C° 0 mm 1 m/s 754 mmHg 62%
    12:00 +32°C° 0.4 mm 1 m/s 754 mmHg 67%
    13:00 +32°C° 0.4 mm 2 m/s 753 mmHg 72%
    14:00 +31°C° 0.4 mm 3 m/s 752 mmHg 77%
    15:00 +30°C° 0.6 mm 3 m/s 752 mmHg 80%
    16:00 +30°C° 0.6 mm 3 m/s 752 mmHg 83%
    17:00 +29°C° 0.6 mm 3 m/s 752 mmHg 86%
    18:00 +29°C° 0.1 mm 3 m/s 753 mmHg 87%
    19:00 +28°C° 0.1 mm 2 m/s 753 mmHg 89%
    20:00 +28°C° 0.1 mm 2 m/s 754 mmHg 90%
    21:00 +28°C° 0.1 mm 2 m/s 754 mmHg 90%
    22:00 +28°C° 0.1 mm 2 m/s 754 mmHg 90%
    23:00 +28°C° 0.1 mm 2 m/s 754 mmHg 91%

    17 Decembrie, Marţi

    Timp Temperatura Precipitaţii Vânt Presiune Umiditate
    00:00 +27°C° 0.3 mm 2 m/s 754 mmHg 91%
    01:00 +27°C° 0.3 mm 2 m/s 754 mmHg 91%
    02:00 +27°C° 0.3 mm 2 m/s 753 mmHg 92%
    03:00 +27°C° 0.2 mm 1 m/s 753 mmHg 91%
    04:00 +27°C° 0.2 mm 1 m/s 753 mmHg 91%
    05:00 +26°C° 0.2 mm 1 m/s 753 mmHg 91%
    06:00 +27°C° 0 mm 1 m/s 754 mmHg 89%
    07:00 +28°C° 0 mm 1 m/s 754 mmHg 87%
    08:00 +28°C° 0 mm 1 m/s 755 mmHg 84%
    09:00 +30°C° 0 mm 1 m/s 754 mmHg 76%
    10:00 +32°C° 0 mm 1 m/s 754 mmHg 68%
    11:00 +32°C° 0 mm 0 m/s 754 mmHg 60%
    12:00 +33°C° 0.4 mm 1 m/s 754 mmHg 65%
    13:00 +32°C° 0.4 mm 2 m/s 753 mmHg 70%
    14:00 +31°C° 0.4 mm 3 m/s 752 mmHg 75%
    15:00 +31°C° 1.1 mm 3 m/s 752 mmHg 80%
    16:00 +30°C° 1.1 mm 3 m/s 752 mmHg 84%
    17:00 +29°C° 1.1 mm 4 m/s 752 mmHg 88%
    18:00 +29°C° 0.7 mm 3 m/s 753 mmHg 89%
    19:00 +28°C° 0.7 mm 2 m/s 753 mmHg 90%
    20:00 +28°C° 0.7 mm 2 m/s 754 mmHg 91%
    21:00 +28°C° 0.3 mm 2 m/s 754 mmHg 92%
    22:00 +27°C° 0.3 mm 3 m/s 754 mmHg 92%
    23:00 +27°C° 0.3 mm 3 m/s 755 mmHg 92%

    18 Decembrie, Miercuri

    Timp Temperatura Precipitaţii Vânt Presiune Umiditate
    00:00 +27°C° 0.6 mm 3 m/s 754 mmHg 93%
    01:00 +27°C° 0.6 mm 3 m/s 754 mmHg 93%
    02:00 +27°C° 0.6 mm 3 m/s 754 mmHg 93%
    03:00 +27°C° 0.1 mm 2 m/s 754 mmHg 94%
    04:00 +27°C° 0.1 mm 2 m/s 754 mmHg 94%
    05:00 +26°C° 0.1 mm 2 m/s 754 mmHg 95%
    06:00 +27°C° 0.1 mm 2 m/s 754 mmHg 94%
    07:00 +27°C° 0.1 mm 1 m/s 755 mmHg 93%
    08:00 +27°C° 0.1 mm 1 m/s 755 mmHg 92%
    09:00 +28°C° 0.2 mm 1 m/s 755 mmHg 87%
    10:00 +29°C° 0.2 mm 1 m/s 755 mmHg 81%
    11:00 +30°C° 0.2 mm 1 m/s 755 mmHg 75%
    12:00 +30°C° 0.2 mm 1 m/s 754 mmHg 76%
    13:00 +29°C° 0.2 mm 1 m/s 754 mmHg 76%
    14:00 +29°C° 0.2 mm 1 m/s 753 mmHg 77%
    15:00 +29°C° 0.2 mm 1 m/s 753 mmHg 79%
    16:00 +28°C° 0.2 mm 1 m/s 753 mmHg 81%
    17:00 +28°C° 0.2 mm 1 m/s 753 mmHg 83%
    18:00 +28°C° 1.5 mm 1 m/s 753 mmHg 86%
    19:00 +27°C° 1.5 mm 1 m/s 754 mmHg 89%
    20:00 +26°C° 1.5 mm 2 m/s 754 mmHg 92%
    21:00 +26°C° 0.6 mm 2 m/s 754 mmHg 93%
    22:00 +26°C° 0.6 mm 2 m/s 755 mmHg 94%
    23:00 +26°C° 0.6 mm 3 m/s 755 mmHg 95%
    Arată mai mult